Simultaneous Nadir Overpasses (SNOs) Predictions

Prediction of SNOs between LANDSAT-8 and METOP-A Satellite Orbit:

Table of predicted SNOs for the next 14.0 days since TLE Epoch: 7/14/2017
Index Date (LANDSAT-8) Time (LANDSAT-8) Lat,Lon (LANDSAT-8) SZA (LANDSAT-8 ) Date (METOP-A) Time (METOP-A) Lat,Lon (METOP-A) SZA (METOP-A ) Distance(km) Time Diff (sec)
1 07/15/2017 23:35:18 -81.20, 47.46 118.04 07/15/2017 23:34:13 -81.21, 47.46 118.06 0.52 65
2 07/16/2017 00:24:43 81.23,-144.41 62.04 07/16/2017 00:24:52 81.23,-144.55 62.03 2.46 9
3 07/18/2017 19:09:34 -81.22, 114.22 117.52 07/18/2017 19:08:33 -81.22, 114.19 117.55 0.74 61
4 07/18/2017 19:59:00 81.23, -78.05 62.51 07/18/2017 19:59:12 81.23, -77.86 62.54 3.26 12
5 07/21/2017 14:43:51 -81.22,-179.42 117.01 07/21/2017 14:42:54 -81.21,-179.47 117.04 0.89 57
6 07/21/2017 15:33:16 81.24, -11.35 63.07 07/21/2017 15:33:32 81.24, -11.19 63.09 2.71 16
7 07/24/2017 10:18:07 -81.21,-113.10 116.45 07/24/2017 10:17:14 -81.21,-113.15 116.48 0.93 53
8 07/24/2017 11:07:32 81.23, 54.95 63.62 07/24/2017 11:07:52 81.24, 55.09 63.65 2.37 20
9 07/27/2017 05:52:23 -81.22, -46.43 115.80 07/27/2017 05:51:34 -81.22, -46.46 115.83 0.73 49




NCC Satellite Simultaneous Nadir Overpasses (SNOs) Prediction Service
